Regional Weather Roundup
Issued by NWS

Home | Current Version | Previous Version | Graphics & Text | Print | Product List | Glossary On
Versions: 1 2 3 4 5 6 7 8 9 10 11 12 13 14 15 16 17 18 19 20 21 22 23 24 25 26 27 28 29 30 31 32 33 34 35 36 37 38 39 40 41 42 43 44 45 46 47 48 49 50
000
ASUS43 KLOT 242308
RWRIL

ILLINOIS REGIONAL WEATHER ROUNDUP
NATIONAL WEATHER SERVICE CHICAGO/ROMEOVILLE IL
500 PM CST SAT FEB 24 2018

NOTE: "FAIR" INDICATES FEW OR NO CLOUDS BELOW 12,000 FEET WITH NO
SIGNIFICANT WEATHER AND/OR OBSTRUCTIONS TO VISIBILITY.

* THESE STATIONS ARE NOT UNDER NWS QUALITY CONTROL. THEY ALSO MAY NOT
  REPORT WEATHER SUCH AS PRECIPITATION OR FOG.

ILZ001-002-007-009-015-016-024-250000-
NORTHWEST ILLINOIS

CITY           SKY/WX    TMP DP  RH WIND       PRES   REMARKS
MOLINE         FOG       42  40  92 E17       29.66F VSB 1
STERLING*      LGT RAIN  40  39  97 E17G24    29.71F FOG
SAVANNA*       DRIZZLE   37  37  98 E8        29.71F WCI  31
$$

ILZ003-004-008-010-011-017-018-250000-
NORTH CENTRAL ILLINOIS

CITY           SKY/WX    TMP DP  RH WIND       PRES   REMARKS
ROCKFORD       CLOUDY    37  34  89 E15G23    29.76F FOG     WCI  28
FREEPORT*      CLOUDY    35  35  99 E15       29.75F FOG     WCI  25
ROCHELLE*      LGT RAIN  38  37  99 E21G28    29.74F WCI  27
DE KALB*       CLOUDY    38  37  98 E16       29.77F FOG     WCI  28
PERU*          CLOUDY    41  40  96 SE21G26   29.74F FOG
$$

ILZ005-006-012>014-019>023-250000-
NORTHEAST ILLINOIS

CITY           SKY/WX    TMP DP  RH WIND       PRES   REMARKS
CHICAGO-OHARE  DRIZZLE   40  37  89 E16       29.82F FOG
CHICAGO-MIDWAY DRIZZLE   41  39  93 E14       29.82F FOG
AURORA         CLOUDY    40  39  97 E15       29.78F FOG
LANSING*       LGT RAIN  43  43 100 E10       29.84F
JOLIET*        CLOUDY    44  43  98 E9        29.81F FOG
WAUKEGAN       LGT RAIN  37  35  92 E12       29.84F FOG     WCI  29
DUPAGE AIRPORT CLOUDY    40  39  97 E15G23    29.79F FOG
KANKAKEE*      LGT RAIN  45  45  98 SE14      29.82F
WHEELING       CLOUDY    39  38  96 E9        29.84F FOG     WCI  33
MORRIS*        CLOUDY    43  42  97 E16       29.78F FOG
ROMEOVILLE*    CLOUDY    41  40  96 E9        29.80F FOG
NORTHERLY ISL    N/A     36  34  92 E13         N/A  WCI  27
$$

LMZ740>746-250000-
SOUTHERN LAKE MICHIGAN

STATION/POSITION SKY/WX   TEMP    WIND        PRES    VSBY  WAVE
                          AIR SEA DIR/SP/G                  HT/PER
                          (F)     (DEG/KT/KT) (MB)    (MI)  (FT/S)
HARRISON CRIB              37     100/ 14/ 15   N/A
BURNHAM HARBOR             36     100/ 10/ 11   N/A
CALUMET HARBOR             38      80/  7/ 10 1010.5F
BURNS HARBOR               43     120/ 12/ 17 1011.9F
MICHIGAN CITY              41      90/ 12/ 15   N/A
$$

ILZ025>027-034>036-040-047-049-050-058-095>099-250000-
WEST-CENTRAL ILLINOIS

CITY           SKY/WX    TMP DP  RH WIND       PRES   REMARKS
QUINCY         CLOUDY    45  44  97 E8        29.60F
GALESBURG*     LGT RAIN  43  43 100 SE9       29.66F VSB 3/4
MACOMB*        FOG      N/A N/A N/A SE12G20   29.66F VSB 1/2
JACKSONVILLE*  CLOUDY    47  47  97 SE25G33   29.62F
PITTSFIELD*    CLOUDY    48  48 100 SE12G17   29.62F
$$

ILZ028>032-037-038-041>044-048-051>054-059>061-250000-
CENTRAL ILLINOIS

CITY           SKY/WX    TMP DP  RH WIND       PRES   REMARKS
PONTIAC        CLOUDY    46  45  98 SE20      29.76F
BLOOMINGTON    LGT RAIN  46  45  93 SE14G22   29.76F VSB 1
DECATUR        LGT RAIN  50  49  96 SE6       29.77F FOG
PEORIA         CLOUDY    46  45  96 SE10      29.69F FOG
LACON*         CLOUDY    44  44 100 SE15G21   29.72F
LINCOLN*       HVY RAIN  49  49 100 SE12G18   29.75F
SPRINGFIELD    RAIN      49  48  97 SE22      29.69F FOG
TAYLORVILLE    RAIN      48  48 100 CALM      29.75F
$$

ILZ033-039-045-046-055>057-062-063-250000-
EAST-CENTRAL ILLINOIS

CITY           SKY/WX    TMP DP  RH WIND       PRES   REMARKS
CHAMPAIGN      CLOUDY    49  49 100 E13       29.78F
DANVILLE*      CLOUDY    49  47  95 E9        29.78F
RANTOUL*       CLOUDY    49  49  99 E8        29.79F
MATTOON        RAIN      51  50  96 SE6       29.78S FOG
PARIS*         LGT RAIN  51  50  94 SE8       29.82R
$$

ILZ079-100>102-250000-
SOUTHWEST ILLINOIS

CITY           SKY/WX    TMP DP  RH WIND       PRES   REMARKS
ALTON          FOG       50  50 100 E12       29.68F VSB 1
BELLEVILLE     RAIN      53  52  97 SE9       29.69F
CAHOKIA*       RAIN      53  52  96 SE17      29.64F
SPARTA*        HVY RAIN  52  52 100 NW5       29.76R
$$

ILZ064>066-069>071-074>076-080>082-084>086-088>090-092>094-250000-
SOUTH-CENTRAL ILLINOIS

CITY           SKY/WX    TMP DP  RH WIND       PRES   REMARKS
CARBONDALE     TSTM      54  54 100 VRB5      29.69F
CAIRO*         LGT RAIN  61  61  99 SE16G22   29.69F
EFFINGHAM*     HVY RAIN  53  53 100 E7        29.79F
MARION         HVY RAIN  54  52  94 CALM      29.69F VSB 1
MT. VERNON     RAIN      54  54 100 E6        29.74F FOG
CENTRALIA*     HVY RAIN  54  54 100 E5        29.74F
SALEM*         HVY RAIN  55  54  95 E5        29.74F
METROPOLIS*    RAIN      60  59  98 SE8       29.72F
$$

ILZ067-068-072-073-078-083-087-091-250000-
SOUTHEAST ILLINOIS

CITY           SKY/WX    TMP DP  RH WIND       PRES   REMARKS
LAWRENCEVILLE  RAIN      55  54  96 E5        29.81S FOG
FLORA*         HVY RAIN  55  55  97 E6        29.76F
FAIRFIELD*     HVY RAIN  54  54 100 MISG      29.76F
HARRISBURG*    HVY RAIN  55  55 100 E12       29.69F
ROBINSON*      RAIN      53  53 100 SE5       29.84R
CARMI*         HVY RAIN  54  54 100 SE8       29.77F
$$

ABBREVIATIONS USED IN REMARKS
   TC - TEMPERATURE IN CELSIUS
  WCI - WIND CHILL INDEX
   HX - HEAT INDEX
  VSB - VISIBILITY
$$





USA.gov is the U.S. government's official web portal to all federal, state and local government web resources and services.